Bismarck, ND

8:49 AM CST on February 09, 2016 (GMT -0600)
Bismarck Municipal

Weather History for KBIS - October, 2013

Change the Weather History Date:

Wednesday, October 16, 2013

  Actual Average Record
Temperature  
Mean Temperature 46 °F 45 °F  
Max Temperature 61 °F 58 °F 87 °F (1991)
Min Temperature 30 °F 32 °F 12 °F (1976)
Degree Days  
Heating Degree Days 19 20  
Month to date heating degree days 275 269  
Since 1 July heating degree days 406 555  
Cooling Degree Days 0 0  
Month to date cooling degree days 0 0  
Year to date cooling degree days 555 519  
Moisture  
Dew Point 33 °F    
Average Humidity 60    
Maximum Humidity 85    
Minimum Humidity 35    
Precipitation  
Precipitation 0.00 in 0.05 in 1.19 in (1980)
Month to date precipitation 4.47 0.68  
Year to date precipitation 25.14 16.08  
Snow  
Snow 0.00 in 0.10 in 1.00 in (1922)
Month to date snowfall 0.6 0.5  
Since 1 July snowfall 0.6 0.7  
Since 1 September snowfall 0.6 0.7  
Snow Depth 0.00 in    
Sea Level Pressure  
Sea Level Pressure 29.98 in    
Wind  
Wind Speed 6 mph (West)    
Max Wind Speed 21 mph    
Max Gust Speed 27 mph    
Visibility 10 miles    
Events      
T = Trace of Precipitation, MM = Missing Value Source: NWS Daily Summary

Daily Weather History Graph

Daily Weather History Graph

Search for Another Location

Airport or City:

Trip Planner

Search our weather history database for the weather conditions in past years. The results will help you decide how hot, cold, wet, or windy it might be!

Date:

Astronomy

Oct. 16, 2013 Rise Set
Actual Time 8:02 AM CDT 6:53 PM CDT
Civil Twilight 7:31 AM CDT 7:24 PM CDT
Nautical Twilight 6:56 AM CDT 7:59 PM CDT
Astronomical Twilight 6:21 AM CDT 8:34 PM CDT
Moon 5:40 PM CDT (10/16) 5:24 AM CDT (10/16)
Length of Visible Light 11h 52m
Length of Day
10h 51m
Waxing Gibbous, 94% of the Moon is Illuminated
Oct 16
Waxing Gibbous
Oct 18
Full
Oct 26
Last Quarter
Nov 3
New
Nov 9
First Quarter

Hourly Weather History & Observations

Time (CDT) Temp. Windchill Dew Point Humidity Pressure Visibility Wind Dir Wind Speed Gust Speed Precip Events Conditions
12:52 AM 32.0 °F - 28.9 °F 88% 30.12 in 10.0 mi Calm Calm - N/A   Clear
1:52 AM 32.0 °F 27.5 °F 28.9 °F 88% 30.11 in 10.0 mi West 4.6 mph - N/A   Clear
2:52 AM 32.0 °F 25.6 °F 28.0 °F 85% 30.09 in 10.0 mi WSW 6.9 mph - N/A   Clear
3:52 AM 32.0 °F 27.5 °F 28.0 °F 85% 30.08 in 10.0 mi WSW 4.6 mph - N/A   Clear
4:52 AM 32.0 °F 28.7 °F 28.0 °F 85% 30.05 in 10.0 mi WSW 3.5 mph - N/A   Clear
5:52 AM 32.0 °F 28.7 °F 28.0 °F 85% 30.04 in 10.0 mi SW 3.5 mph - N/A   Clear
6:52 AM 32.0 °F 27.5 °F 28.0 °F 85% 30.02 in 10.0 mi SW 4.6 mph - N/A   Clear
7:52 AM 32.0 °F 27.5 °F 28.0 °F 85% 30.02 in 10.0 mi SW 4.6 mph - N/A   Clear
8:52 AM 30.0 °F - 27.0 °F 88% 30.01 in 10.0 mi Calm Calm - N/A   Clear
9:52 AM 37.9 °F 33.5 °F 32.0 °F 79% 30.00 in 10.0 mi SW 5.8 mph - N/A   Clear
10:52 AM 44.1 °F 40.1 °F 34.0 °F 68% 29.99 in 10.0 mi West 6.9 mph - N/A   Clear
11:52 AM 48.9 °F - 35.1 °F 59% 29.98 in 10.0 mi WSW 9.2 mph - N/A   Clear
12:52 PM 53.1 °F - 37.0 °F 55% 29.96 in 10.0 mi SW 8.1 mph - N/A   Clear
1:52 PM 55.9 °F - 37.0 °F 49% 29.93 in 10.0 mi WSW 4.6 mph - N/A   Clear
2:52 PM 59.0 °F - 33.1 °F 38% 29.90 in 10.0 mi West 9.2 mph - N/A   Clear
3:52 PM 61.0 °F - 32.0 °F 34% 29.88 in 10.0 mi West 11.5 mph - N/A   Clear
4:52 PM 57.0 °F - 35.1 °F 44% 29.88 in 10.0 mi West 8.1 mph - N/A   Clear
5:52 PM 55.9 °F - 34.0 °F 44% 29.88 in 10.0 mi Calm Calm - N/A   Clear
6:52 PM 54.0 °F - 36.0 °F 51% 29.88 in 10.0 mi NNW 5.8 mph - N/A   Clear
7:52 PM 52.0 °F - 36.0 °F 54% 29.90 in 10.0 mi NW 4.6 mph - N/A   Clear
8:52 PM 50.0 °F - 37.0 °F 61% 29.91 in 10.0 mi WNW 5.8 mph - N/A   Mostly Cloudy
9:52 PM 51.1 °F - 37.9 °F 61% 29.91 in 10.0 mi NW 6.9 mph - N/A   Overcast
10:52 PM 50.0 °F - 39.9 °F 68% 29.92 in 10.0 mi NNW 9.2 mph - N/A   Overcast
11:52 PM 48.9 °F - 37.0 °F 64% 29.92 in 10.0 mi North 11.5 mph - N/A   Overcast